Regional Weather Roundup
Issued by NWS

Home | Current Version | Previous Version | Graphics & Text | Print | Product List | Glossary On
Versions: 1 2 3 4 5 6 7 8 9 10 11 12 13 14 15 16 17 18 19 20 21 22 23 24 25 26 27 28 29 30 31 32 33 34 35 36 37 38 39 40 41 42 43 44 45 46 47 48 49 50
000
ASUS45 KABQ 271210
RWRNM
NEW MEXICO REGIONAL WEATHER ROUNDUP
NATIONAL WEATHER SERVICE ALBUQUERQUE NM
500 AM MST MON FEB 27 2017

NOTE: "FAIR" MEANS FEW OR NO CLOUDS BELOW 12,000 FEET AGL WITH NO
       SIGNIFICANT WEATHER OR OBSTRUCTIONS TO VISION.

      THIS PRODUCT IS RELEASED AS TWO VERSIONS.  ONE VERSION NEAR
      THE TOP OF THE HOUR CONTAINING PRELIMINARY DATA FROM ALBUQUERQUE
      AND OTHER STATIONS.  A FINAL VERSION WITH ADDITIONAL DATA IS
      ISSUED ABOUT 10 MINUTES AFTER THE HOUR.

NMZ501-503-504-510>518-271300-
NORTHWEST PLATEAU/NORTHCENTRAL MOUNTAINS

CITY           SKY/WX    TMP DP  RH WIND       PRES   REMARKS
FARMINGTON     CLOUDY    32  20  61 NE6       29.84R WCI  26
6HR MIN TEMP:  31; 6HR MAX TEMP:  33;

LOS ALAMOS     CLOUDY    32  20  61 SE5       29.90R WCI  27
SANTA FE       CLOUDY    32  21  64 CALM      29.91R
6HR MIN TEMP:  21; 6HR MAX TEMP:  32;

TAOS           CLOUDY    28  10  47 SE5       29.89S WCI  23
ANGEL FIRE     FLURRIES  25  18  74 SW20G31   29.84R WCI  10

$$
NMZ402-403-502-505>509-271300-
WESTCENTRAL MOUNTAINS/SOUTHWEST MOUNTAINS

CITY           SKY/WX    TMP DP  RH WIND       PRES   REMARKS
GALLUP         CLOUDY    34  22  61 SW12      29.89R WCI  25
6HR MIN TEMP:  29; 6HR MAX TEMP:  35;

GRANTS         FAIR      23  20  89 S7        29.90F WCI  14
SILVER CITY    FAIR      32  24  71 NW6       29.98R WCI  26

$$
NMZ407-409-411-412-271300-
SOUTHERN DESERTS

CITY           SKY/WX    TMP DP  RH WIND       PRES   REMARKS
DEMING         FAIR      31  24  75 SW7       29.98R WCI  24
6HR MIN TEMP:  31; 6HR MAX TEMP:  41;

LAS CRUCES     FAIR      35  24  65 W6        29.98R WCI  30
HOLLOMAN AFB   FAIR      43  20  39 SE10      29.99R
ALAMOGORDO     FAIR      41  19  42 S8        29.97R
T OR C         FAIR      33  24  69 CALM      29.92R
6HR MIN TEMP:  33; 6HR MAX TEMP:  43;


$$
NMZ519>523-271300-
CENTRAL VALLEYS/CENTRAL HIGHLANDS

CITY           SKY/WX    TMP DP  RH WIND       PRES   REMARKS
ALBUQUERQUE    FAIR      33  23  66 CALM      29.92S
6HR MIN TEMP:  30; 6HR MAX TEMP:  38;

DOUBLE EAGLE   CLOUDY    27  21  78 S5        29.92R WCI  22
MORIARTY ARPT  FAIR      23  19  85 NE5       29.92R WCI  16
6HR MIN TEMP:  21; 6HR MAX TEMP:  32;

CLINES CORNERS FAIR      24  18  77 W21       29.88S WCI   9
6HR MIN TEMP:  24; 6HR MAX TEMP:  29;

BELEN          FAIR      27  22  80 CALM      29.92R
6HR MIN TEMP:  25; 6HR MAX TEMP:  36;

SOCORRO        FAIR      29  23  76 SW3       29.93R
6HR MIN TEMP:  29; 6HR MAX TEMP:  38;


$$
NMZ524>526-539-540-271300-
SOUTHCENTRAL MOUNTAINS

CITY           SKY/WX    TMP DP  RH WIND       PRES   REMARKS
RUIDOSO        FAIR      39  16  38 W17G31    29.93R WCI  30

$$
NMZ527>531-271300-
NORTHEAST HIGHLANDS/NORTHEAST PLAINS

CITY           SKY/WX    TMP DP  RH WIND       PRES   REMARKS
LAS VEGAS      FAIR      30  17  58 SW15      29.79S WCI  19
6HR MIN TEMP:  30; 6HR MAX TEMP:  35;

RATON          FAIR      19   5  54 NE6       29.76R WCI  11
6HR MIN TEMP:  18; 6HR MAX TEMP:  31;

CLAYTON        FAIR      28  14  55 W9        29.80R WCI  19
6HR MIN TEMP:  23; 6HR MAX TEMP:  33;


$$
NMZ532>537-271300-
EASTCENTRAL PLAINS

CITY           SKY/WX    TMP DP  RH WIND       PRES   REMARKS
TUCUMCARI      FAIR      34  23  64 SW15      29.85S WCI  24
6HR MIN TEMP:  32; 6HR MAX TEMP:  38;

CANNON AFB     CLEAR     28  21  73 W3        29.90R
6HR MIN TEMP:  28; 6HR MAX TEMP:  39;

CLOVIS AIRPORT FAIR      30  21  69 W10       29.90S WCI  21

$$
NMZ028-029-538-271300-
SOUTHEAST PLAINS

CITY           SKY/WX    TMP DP  RH WIND       PRES   REMARKS
ROSWELL        FAIR      32  22  66 NW3         N/A
6HR MIN TEMP:  29; 6HR MAX TEMP:  44;

ARTESIA        FAIR      32  23  69 CALM      29.92R
CARLSBAD       FAIR      39  23  52 VRB3      29.91R
6HR MIN TEMP:  37; 6HR MAX TEMP:  48;

HOBBS          FAIR      36  18  48 SW3       29.93S


$$




USA.gov is the U.S. government's official web portal to all federal, state and local government web resources and services.